DT_LEITURA;HR_LEITURA;MED-PressaoAtm[hPa];VAL-TempExt[oC];VAL-UmidExt[%UR];VAL-TempInt[oC];VAL-UmidInt[%UR];Dir-Vento[grau];Vel-Vento[m/s];Precipitação[mm/h]
28/08/2026;21:00:00;1011,4;-35,5;4;30,0;64;146;1,6;0,0
28/08/2026;21:05:00;1011,5;-35,5;4;29,9;64;151;1,5;0,0
28/08/2026;21:10:00;1011,5;-35,5;4;29,9;65;152;1,6;0,0
28/08/2026;21:15:00;1011,6;-35,5;4;29,8;65;148;1,5;0,0
28/08/2026;21:20:00;1011,6;-35,5;4;29,8;66;135;1,6;0,0
28/08/2026;21:25:00;1011,7;-35,5;4;29,7;66;138;1,8;0,0
28/08/2026;21:30:00;1011,7;-35,4;4;29,7;67;141;1,5;0,0
28/08/2026;21:35:00;1011,8;-35,5;4;29,6;67;148;1,5;0,0
28/08/2026;21:40:00;1011,8;-35,5;4;29,6;67;138;2,0;0,0
28/08/2026;21:45:00;1011,8;-35,5;4;29,6;67;135;2,3;0,0
28/08/2026;21:50:00;1011,8;-35,5;4;29,6;68;133;1,6;0,0
28/08/2026;21:55:00;1011,9;-35,5;4;29,5;68;133;2,0;0,0
28/08/2026;22:00:00;1011,9;-35,5;4;29,5;68;134;1,4;0,0
28/08/2026;22:05:00;1012,0;-35,5;4;29,5;69;136;1,6;0,0
28/08/2026;22:10:00;1012,0;-35,6;4;29,4;69;130;1,8;0,0
28/08/2026;22:15:00;1012,0;-35,5;4;29,4;69;133;1,7;0,0
28/08/2026;22:20:00;1012,0;-35,6;4;29,3;69;134;1,8;0,0
28/08/2026;22:25:00;1012,1;-35,6;4;29,3;70;129;2,3;0,0
28/08/2026;22:30:00;1012,1;-35,7;4;29,2;69;122;2,4;0,0
28/08/2026;22:35:00;1012,1;-35,7;5;29,2;70;124;2,0;0,0
28/08/2026;22:40:00;1012,1;-35,7;5;29,2;70;127;2,1;0,0
28/08/2026;22:45:00;1012,1;-35,7;5;29,1;70;131;1,9;0,0
28/08/2026;22:50:00;1012,1;-35,7;5;29,1;70;127;2,3;0,0
28/08/2026;22:55:00;1012,0;-35,8;4;29,1;71;134;1,8;0,0
28/08/2026;23:00:00;1012,0;-35,9;3;29,0;71;132;1,5;0,0
28/08/2026;23:05:00;1011,9;-35,9;3;29,0;71;123;1,8;0,0
28/08/2026;23:10:00;1011,9;-35,9;3;28,9;71;125;1,4;0,0
28/08/2026;23:15:00;1011,9;-35,9;3;28,9;71;133;1,4;0,0
28/08/2026;23:20:00;1011,8;-36,0;3;28,8;72;129;1,6;0,0
28/08/2026;23:25:00;1011,7;-36,1;2;28,7;72;134;1,2;0,0
28/08/2026;23:30:00;1011,7;-36,1;2;28,7;72;129;1,5;0,0
28/08/2026;23:35:00;1011,6;-36,2;2;28,7;73;130;1,4;0,0
28/08/2026;23:40:00;1011,6;-36,3;1;28,6;73;137;1,2;0,0
28/08/2026;23:45:00;1011,5;-36,4;0;28,6;73;146;1,1;0,0
28/08/2026;23:50:00;1011,4;-36,3;1;28,6;73;130;1,4;0,0
28/08/2026;23:55:00;1011,4;-36,4;1;28,6;74;136;1,3;0,0
